Tracking 35274 objects as of 10-Sep-2026
HD Live streaming from Space Station
objects crossing your sky now

STORK-5 (MARTA)


STORK-5 (MARTA) is no longer on orbit
STORK-5 (MARTA) is classified as:


NORAD ID: 48872
Int'l Code: 2021-058B
Launch date: June 30, 2021
Source: POLAND (POL)
Launch site: Pegasus launched from Western Range Air Space (WRAS)
Decay date: 2023-10-22

Uplink (MHz):
Downlink (MHz): 401.100
Beacon (MHz):
Mode: 9k6 FSK
Call sign:
Status: Reentered

Your satellite tracking list
Your tracking list is empty




NASA's NSSDC Master Catalog

Two Line Element Set (TLE):
1 48872U 21058B   23295.17785269  .15950633  10142-4  52708-3 0  9990
2 48872  60.6455 250.0837 0003994 213.6259 146.4631 16.44564394129356
Source of the keplerian elements: AFSPC